Wind_Speed
6 6 6 6 5 5 5 5 5 5 4 3 2 2 2 3 3 4 4 4 5 5 5 5 5 6 7 8 8 9 9 9 9 9 10 10 10 10 10 10 10 11 11 11 12 12 12 12 12
6 6 6 7 7 7 7 7 6 5 4 4 3 2 3 4 4 5 5 6 7 7 7 6 6 7 8 9 9 10 11 10 10 10 11 11 12 12 12 12 12 12 12 13 13 14 14 14 14
8 7 7 7 7 8 7 7 7 5 4 3 3 3 4 5 6 6 7 8 8 8 8 8 8 8 9 9 10 11 12 12 12 12 12 12 13 13 13 13 13 13 14 14 14 15 15 15 15
9 7 7 7 8 9 7 6 6 5 5 5 5 5 6 6 6 7 8 9 10 9 10 10 10 10 10 11 12 13 13 13 13 13 14 14 14 14 14 15 15 15 15 15 16 16 17 17 17
8 8 6 7 8 9 8 6 6 7 6 6 7 8 8 7 8 8 9 10 11 11 11 11 11 11 12 12 13 14 14 14 15 15 16 16 16 16 16 16 17 17 17 17 18 18 19 18 18
8 8 8 8 8 9 8 8 6 7 6 7 7 8 9 9 9 10 10 11 11 11 12 12 12 13 13 14 15 15 15 15 16 17 17 17 18 18 18 18 18 19 19 20 20 20 20 19 19
8 8 9 9 9 9 9 9 9 8 8 9 9 9 10 10 10 11 12 12 12 12 13 13 14 14 15 16 16 17 17 17 18 18 19 18 19 19 19 20 20 20 21 20 20 20 20 20 20
8 8 9 9 10 11 11 11 11 10 9 10 10 10 11 10 10 11 12 12 12 13 14 15 15 16 17 17 17 18 19 19 19 19 19 20 20 20 21 21 21 22 22 21 22 22 22 22 22
7 8 9 10 10 11 11 11 12 11 11 11 11 11 11 11 11 11 12 13 14 15 16 16 16 17 17 17 18 20 20 20 20 21 20 21 21 22 22 22 22 23 23 23 23 23 23 22 22
6 7 9 9 10 11 12 11 12 12 12 12 12 12 12 12 12 14 13 14 15 17 18 18 18 19 19 19 20 20 21 21 22 22 22 22 23 23 24 24 24 24 24 24 24 24 24 24 24
5 6 7 8 10 11 11 12 12 13 12 12 13 13 14 14 15 15 14 15 16 18 19 20 21 21 21 21 22 22 22 23 23 23 24 25 25 25 25 25 25 25 25 25 25 25 25 25 25
5 6 7 9 10 11 12 12 13 13 13 14 14 14 15 16 16 17 17 18 18 20 21 22 22 23 23 24 23 23 23 24 24 24 25 25 26 26 26 26 26 26 26 26 25 25 25 25 25
6 7 7 9 10 11 12 13 14 14 15 15 16 16 17 17 18 19 19 20 21 21 21 23 23 24 25 25 25 24 25 24 25 25 25 26 26 27 27 27 27 27 27 27 26 26 26 25 25
6 7 8 9 10 11 13 14 15 15 16 17 18 18 19 20 20 20 21 21 21 22 22 24 24 24 25 26 26 26 25 25 25 26 26 27 27 27 27 28 28 28 28 28 28 27 27 26 26
6 7 8 10 11 12 13 14 15 16 16 17 18 19 20 21 22 21 21 21 22 23 24 25 25 26 26 27 26 27 26 26 26 26 28 27 28 28 29 28 28 28 28 28 28 27 27 26 26
7 7 8 11 12 13 13 14 16 16 17 18 19 20 21 21 22 22 22 22 23 24 25 25 26 27 27 27 27 27 27 27 27 28 27 27 27 28 28 28 28 28 28 28 28 27 27 27 26
7 8 9 11 12 13 13 15 16 17 18 18 19 20 21 21 22 24 24 23 24 25 26 26 27 27 27 27 27 27 28 27 26 26 27 27 27 27 27 28 28 28 27 28 29 28 27 28 28
9 10 11 12 13 14 14 15 17 17 17 18 19 20 21 23 24 25 26 25 25 25 25 26 26 26 27 28 28 28 28 27 26 26 27 27 27 26 26 26 27 28 27 27 28 27 27 27 28
9 10 12 14 14 14 15 16 17 17 18 19 20 21 23 23 24 25 26 27 26 25 25 25 25 26 27 27 27 27 27 27 27 27 27 28 27 25 26 25 25 25 25 25 25 25 26 26 27
10 11 13 14 14 15 16 17 18 18 19 21 22 23 24 25 26 26 27 27 27 26 25 25 26 27 27 27 27 26 26 26 27 27 27 26 24 24 24 22 23 24 23 24 24 25 25 26 27
10 11 12 14 14 15 16 17 18 19 20 21 22 23 24 24 25 27 26 26 26 25 25 25 26 26 27 27 26 26 26 26 26 26 25 24 23 22 22 22 22 23 23 23 23 24 25 25 26
11 12 13 13 13 15 16 17 20 19 21 22 23 23 23 24 25 26 26 25 24 24 25 25 26 26 26 26 26 26 25 25 25 25 24 23 23 23 23 23 23 24 24 23 23 24 24 24 25
11 12 12 13 13 14 16 17 19 19 21 22 22 22 23 23 24 24 24 23 23 24 25 25 26 26 26 25 25 25 25 25 25 24 23 23 23 23 23 22 23 24 23 23 24 24 24 24 25
12 12 13 12 12 14 15 15 18 19 20 20 21 21 22 24 24 23 23 23 23 24 25 25 25 25 25 25 24 25 25 25 24 24 24 24 24 23 23 23 23 24 23 24 24 24 24 25 25
12 11 12 12 12 13 16 16 17 19 20 20 20 21 21 22 22 21 22 22 23 24 24 24 24 23 23 23 24 24 24 24 24 24 24 23 23 23 23 23 23 23 22 23 24 24 24 24 25
12 11 12 12 12 14 16 16 18 20 20 20 21 21 22 22 21 21 22 23 24 24 23 22 22 22 22 23 23 23 23 23 23 23 22 22 21 22 21 21 22 22 21 22 22 23 23 23 24
13 12 11 12 13 14 15 17 17 18 19 19 20 21 21 21 21 21 22 22 22 22 21 20 20 20 21 21 21 21 21 21 21 21 20 20 20 20 19 20 20 20 20 20 21 21 22 23 24
12 11 11 12 14 15 16 17 17 18 19 19 20 19 20 20 20 20 20 20 20 20 19 19 18 19 20 19 19 19 19 19 19 19 19 19 18 18 18 18 19 19 19 20 20 20 22 24 24
13 11 12 13 14 15 15 17 18 18 19 19 19 20 20 20 19 19 20 19 19 19 19 19 18 19 18 18 17 17 16 16 17 17 17 16 16 17 17 17 18 18 19 20 20 21 22 23 23
12 12 12 14 15 15 15 18 19 19 19 19 19 19 18 18 19 19 18 18 18 18 19 19 18 18 17 16 16 16 16 16 15 16 16 16 16 16 16 16 17 18 19 20 20 20 21 22 22
Wind_Direction
198 202 202 200 198 199 208 210 216 219 230 240 249 249 270 301 303 305 318 323 324 320 320 317 314 312 308 302 300 297 294 294 294 296 298 300 301 302 303 303 301 298 295 291 285 282 280 279 275
210 211 209 205 196 209 217 220 222 230 240 253 265 286 301 303 300 303 312 314 317 316 309 311 312 306 303 300 297 296 294 294 294 295 296 296 297 298 299 300 298 296 293 291 287 282 280 279 276
214 213 214 208 205 210 221 229 232 236 249 257 273 288 298 309 311 307 306 307 312 313 306 311 311 307 303 300 297 296 293 292 292 293 294 294 294 294 295 297 296 294 292 289 288 285 282 279 277
217 219 218 216 220 222 230 233 236 246 253 265 277 290 292 302 310 310 307 306 307 308 306 311 310 306 302 299 298 295 292 290 291 292 292 292 292 293 295 295 294 292 290 289 287 284 283 281 277
220 222 218 223 226 232 237 245 250 259 263 271 274 283 291 292 301 305 301 304 304 304 307 310 308 304 301 298 296 294 292 290 289 290 290 290 291 291 293 294 292 291 287 287 285 283 282 281 280
223 220 216 227 230 235 242 248 253 264 264 271 276 281 285 290 296 298 296 299 299 300 303 305 303 301 300 296 295 295 292 292 291 290 290 290 289 289 290 292 292 290 290 288 286 284 282 279 278
227 222 220 227 232 239 246 250 256 263 263 267 276 280 283 291 293 294 294 296 296 297 298 297 297 297 296 295 295 296 295 294 293 291 290 290 288 289 289 290 291 290 288 287 286 285 284 281 279
230 231 230 234 238 245 254 258 261 260 261 265 273 278 280 286 287 289 290 291 293 294 294 295 297 297 296 295 295 296 296 294 295 294 292 290 289 288 288 288 289 288 287 287 287 287 285 283 279
231 231 236 239 243 246 254 260 264 262 262 266 271 276 278 283 285 288 290 292 292 293 295 297 297 296 295 294 294 294 295 295 294 293 291 289 289 289 288 288 288 287 287 286 287 286 285 283 281
233 237 244 245 246 247 252 260 270 268 265 267 271 275 280 279 281 286 286 290 292 293 294 296 296 296 296 295 294 293 293 293 293 291 289 288 288 288 288 288 287 286 286 285 285 285 283 282 281
252 254 257 256 255 255 257 263 268 266 267 268 270 275 284 283 284 287 288 291 294 295 295 296 296 296 296 295 293 293 293 292 291 288 287 287 287 287 287 287 287 287 286 284 283 283 282 281 281
266 267 265 261 261 262 265 271 274 269 271 272 276 278 284 287 287 289 289 292 297 297 296 296 295 295 295 295 291 292 294 293 291 289 288 288 287 288 286 287 286 285 284 283 282 281 281 281 280
275 266 268 269 270 270 270 274 277 275 276 278 280 285 287 288 288 288 292 293 294 295 296 297 295 294 293 292 291 290 292 291 293 291 288 287 287 288 287 287 286 284 283 282 282 280 280 280 278
274 276 276 277 276 275 275 277 278 280 282 284 287 289 288 287 287 289 291 294 294 294 294 295 295 293 293 295 294 290 291 291 293 294 290 286 286 286 287 286 284 283 283 282 282 282 282 280 278
283 284 284 281 281 279 279 279 279 281 283 286 289 291 292 292 291 290 294 295 295 293 294 294 294 293 294 295 296 294 294 295 293 293 292 289 285 286 287 288 286 284 282 282 281 282 282 281 280
295 292 288 288 286 284 282 277 278 282 284 287 289 290 290 293 294 294 295 295 294 294 295 295 294 295 296 295 295 294 293 295 295 292 291 291 288 287 287 287 285 282 280 280 281 282 282 281 280
296 285 280 285 287 285 281 278 280 283 286 288 289 288 287 291 292 293 293 293 293 294 294 293 294 294 294 295 295 295 296 296 295 293 292 292 290 288 289 288 286 282 280 279 279 279 278 279 279
271 279 284 286 287 287 284 282 283 285 288 288 288 287 287 289 291 292 292 291 291 292 293 293 293 294 295 294 294 294 295 295 295 294 293 292 291 290 289 289 287 283 282 281 280 278 278 279 279
276 282 287 289 292 290 289 287 286 288 288 288 288 288 289 290 291 292 291 290 292 293 294 293 293 294 295 294 293 294 294 294 295 295 295 295 292 290 289 287 286 286 286 284 282 281 280 280 280
293 289 288 290 293 293 292 290 288 289 289 288 288 288 288 289 290 292 291 291 292 293 293 292 294 294 294 295 294 294 292 293 294 294 294 295 293 292 291 288 285 285 287 286 283 284 283 281 281
300 291 288 290 296 296 297 297 295 292 292 290 289 289 288 290 290 291 291 291 292 293 292 292 293 294 294 293 293 293 293 293 294 294 294 292 291 291 291 290 289 286 287 287 285 286 286 285 284
298 292 291 293 301 302 301 299 296 295 293 292 292 294 293 294 293 292 291 291 291 292 293 292 293 295 295 293 294 296 295 295 295 295 294 292 291 291 291 292 292 291 288 288 288 287 288 289 288
306 301 297 298 301 302 302 299 297 296 296 296 296 298 297 297 295 294 293 292 291 292 294 293 295 295 295 294 295 296 296 295 294 293 293 293 292 293 292 294 293 294 291 291 290 289 290 290 289
312 311 311 311 310 305 305 302 300 299 299 300 298 302 300 299 298 296 297 297 295 296 297 297 296 295 295 297 297 297 296 295 293 293 292 293 293 294 292 293 293 295 293 292 294 292 291 290 289
320 323 320 318 313 305 308 306 304 305 303 303 302 303 303 302 303 301 301 301 301 302 301 299 298 297 297 299 299 298 297 296 295 295 294 293 294 293 292 292 293 295 294 294 295 294 293 291 290
319 321 317 313 312 308 311 311 308 309 309 307 306 307 308 308 309 307 306 305 304 304 303 300 300 301 300 300 300 299 297 297 295 296 297 297 295 294 294 294 295 295 295 296 295 294 293 294 293
319 319 319 322 322 321 319 317 315 316 315 314 314 313 313 312 311 311 309 309 308 308 306 303 304 303 303 303 302 300 298 297 297 297 299 299 298 297 298 298 298 298 298 298 296 295 295 296 296
317 319 324 327 324 323 322 320 323 323 321 320 322 320 318 317 316 315 314 314 313 314 314 310 308 308 307 306 305 303 299 298 299 299 300 301 301 300 301 299 299 300 300 299 298 298 298 299 299
324 323 323 322 322 321 321 318 322 324 326 327 326 324 323 322 321 317 316 317 318 317 316 314 313 313 311 307 307 306 303 302 300 301 302 304 306 304 302 302 302 303 303 302 302 303 302 302 301
325 322 320 322 325 323 323 320 322 325 328 329 327 326 325 325 323 321 319 319 320 321 321 320 317 315 313 312 311 309 306 305 304 306 307 307 308 309 305 305 306 306 308 309 308 304 303 303 300
Height
5888 5889 5890 5891 5893 5895 5895 5895 5894 5894 5894 5894 5894 5894 5894 5894 5895 5896 5893 5890 5890 5889 5888 5887 5886 5886 5885 5885 5884 5884 5883 5881 5880 5879 5879 5877 5876 5875 5874 5873 5872 5872 5871 5870 5869 5869 5868 5868 5867
5886 5887 5889 5890 5892 5895 5894 5892 5892 5893 5893 5893 5893 5893 5892 5892 5892 5891 5890 5889 5888 5887 5886 5886 5885 5884 5883 5882 5882 5881 5880 5879 5878 5877 5876 5875 5874 5873 5872 5871 5870 5869 5868 5867 5867 5866 5865 5865 5864
5885 5885 5887 5888 5890 5892 5891 5891 5891 5891 5891 5891 5891 5891 5891 5891 5890 5889 5889 5888 5886 5885 5885 5884 5883 5882 5881 5880 5879 5879 5878 5877 5875 5874 5873 5872 5871 5870 5869 5868 5867 5866 5865 5864 5864 5863 5862 5862 5861
5883 5884 5886 5888 5888 5889 5889 5889 5890 5890 5890 5890 5890 5889 5889 5889 5889 5888 5887 5886 5885 5884 5883 5882 5881 5880 5879 5878 5877 5876 5875 5874 5873 5872 5870 5869 5868 5867 5866 5865 5864 5863 5862 5861 5861 5860 5859 5858 5857
5881 5882 5884 5886 5886 5887 5887 5888 5888 5888 5888 5888 5888 5888 5887 5887 5886 5886 5885 5884 5883 5882 5881 5880 5879 5878 5877 5876 5874 5873 5872 5871 5870 5868 5867 5866 5865 5864 5863 5862 5860 5859 5858 5857 5857 5856 5855 5854 5853
5879 5881 5884 5885 5885 5885 5886 5886 5886 5886 5886 5886 5886 5886 5885 5885 5884 5883 5883 5882 5881 5879 5878 5877 5876 5875 5874 5873 5871 5870 5869 5867 5866 5865 5864 5862 5861 5860 5859 5858 5857 5855 5854 5853 5852 5851 5850 5850 5849
5878 5880 5881 5882 5883 5884 5884 5884 5884 5884 5884 5884 5884 5884 5884 5882 5882 5881 5880 5879 5878 5877 5876 5874 5873 5872 5871 5869 5868 5867 5865 5864 5862 5861 5860 5858 5857 5855 5854 5853 5852 5851 5849 5848 5847 5847 5846 5845 5844
5876 5878 5879 5880 5881 5882 5882 5882 5882 5881 5882 5882 5882 5882 5882 5881 5880 5879 5878 5877 5875 5874 5873 5871 5870 5869 5867 5866 5865 5863 5862 5860 5858 5857 5855 5854 5853 5851 5850 5849 5848 5846 5845 5844 5842 5841 5841 5840 5839
5874 5877 5878 5878 5879 5879 5879 5879 5879 5879 5879 5880 5880 5880 5879 5878 5877 5876 5875 5874 5873 5872 5870 5868 5867 5865 5864 5862 5861 5859 5857 5856 5854 5852 5851 5849 5848 5846 5845 5844 5842 5841 5840 5839 5837 5836 5835 5834 5834
5873 5875 5875 5875 5876 5876 5876 5877 5877 5877 5877 5877 5877 5877 5876 5876 5874 5873 5872 5871 5870 5868 5867 5865 5864 5862 5860 5858 5857 5855 5853 5851 5849 5848 5846 5844 5843 5841 5840 5838 5837 5836 5834 5833 5832 5830 5829 5828 5828
5871 5873 5873 5873 5873 5874 5874 5874 5874 5875 5875 5875 5875 5875 5874 5873 5872 5870 5868 5867 5866 5865 5863 5861 5860 5858 5856 5854 5852 5850 5848 5846 5844 5842 5841 5839 5838 5836 5834 5833 5831 5830 5828 5827 5826 5824 5823 5822 5822
5871 5871 5871 5871 5872 5872 5872 5872 5872 5872 5872 5872 5872 5872 5871 5870 5869 5867 5865 5864 5863 5861 5860 5858 5856 5854 5851 5849 5847 5844 5842 5840 5839 5837 5835 5834 5832 5830 5828 5827 5825 5824 5822 5821 5820 5819 5818 5816 5815
5870 5870 5869 5869 5870 5870 5870 5870 5870 5869 5869 5869 5869 5869 5868 5866 5865 5864 5862 5860 5859 5857 5855 5853 5851 5848 5846 5844 5842 5839 5837 5835 5833 5831 5829 5828 5826 5824 5822 5820 5819 5817 5816 5815 5814 5813 5812 5811 5809
5868 5868 5868 5868 5868 5868 5868 5868 5868 5867 5866 5866 5866 5865 5864 5863 5861 5859 5858 5856 5854 5852 5850 5848 5846 5844 5841 5839 5836 5834 5832 5830 5828 5826 5824 5822 5820 5818 5816 5814 5812 5811 5810 5809 5808 5807 5806 5805 5804
5867 5867 5867 5866 5866 5866 5866 5866 5865 5864 5864 5863 5862 5861 5860 5858 5856 5855 5853 5851 5850 5848 5846 5844 5841 5839 5836 5834 5831 5828 5826 5824 5822 5820 5818 5816 5813 5811 5810 5808 5806 5805 5803 5802 5801 5801 5799 5798 5797
5866 5867 5867 5865 5864 5864 5865 5864 5862 5861 5861 5859 5858 5857 5856 5854 5852 5850 5848 5847 5845 5843 5841 5838 5836 5833 5831 5828 5826 5823 5821 5819 5816 5814 5812 5810 5808 5806 5804 5801 5800 5798 5797 5796 5795 5794 5793 5792 5791
5866 5866 5866 5864 5862 5861 5861 5860 5860 5858 5857 5856 5855 5854 5852 5850 5848 5846 5844 5842 5840 5837 5835 5833 5830 5828 5825 5823 5820 5818 5816 5813 5810 5808 5806 5804 5802 5800 5797 5795 5793 5791 5790 5789 5788 5787 5786 5785 5784
5865 5864 5863 5862 5860 5859 5858 5857 5856 5855 5854 5852 5851 5849 5848 5846 5844 5841 5839 5837 5834 5832 5830 5827 5824 5822 5820 5817 5814 5812 5810 5807 5804 5802 5800 5798 5795 5793 5791 5788 5786 5784 5783 5782 5781 5779 5779 5778 5777
5861 5861 5860 5858 5856 5856 5854 5853 5852 5851 5849 5848 5846 5845 5843 5841 5839 5836 5834 5832 5829 5827 5824 5822 5819 5817 5814 5811 5808 5805 5803 5800 5798 5796 5793 5791 5788 5786 5784 5782 5781 5779 5777 5775 5774 5773 5772 5770 5769
5858 5858 5857 5855 5853 5852 5851 5849 5848 5846 5845 5843 5841 5840 5838 5835 5833 5831 5828 5826 5824 5821 5819 5816 5814 5811 5808 5805 5802 5799 5797 5794 5792 5790 5787 5784 5782 5780 5778 5777 5775 5773 5771 5770 5768 5767 5765 5764 5763
5855 5854 5853 5852 5850 5848 5847 5846 5844 5842 5840 5838 5836 5834 5831 5829 5827 5824 5822 5820 5818 5815 5812 5810 5807 5805 5802 5798 5796 5793 5790 5788 5786 5784 5781 5779 5777 5775 5773 5771 5769 5767 5766 5764 5762 5761 5759 5757 5756
5853 5851 5850 5848 5847 5846 5845 5843 5840 5838 5835 5833 5830 5828 5825 5822 5820 5818 5816 5814 5811 5809 5806 5804 5801 5799 5796 5793 5790 5787 5785 5782 5780 5778 5775 5773 5771 5769 5767 5766 5764 5762 5760 5758 5756 5754 5753 5751 5749
5849 5848 5846 5845 5844 5843 5841 5839 5837 5833 5831 5828 5825 5822 5819 5817 5814 5812 5810 5807 5805 5803 5800 5798 5795 5792 5789 5787 5784 5781 5779 5776 5774 5772 5770 5768 5766 5763 5761 5760 5758 5756 5754 5752 5749 5748 5746 5744 5742
5846 5845 5843 5842 5841 5840 5837 5835 5833 5829 5826 5823 5820 5817 5814 5811 5808 5806 5804 5801 5799 5797 5794 5791 5788 5786 5783 5780 5778 5775 5773 5770 5768 5766 5764 5762 5759 5757 5755 5754 5752 5750 5748 5746 5744 5742 5740 5738 5735
5844 5843 5842 5841 5839 5837 5833 5831 5828 5823 5820 5817 5815 5812 5808 5805 5802 5800 5798 5796 5793 5790 5787 5784 5781 5779 5776 5774 5772 5769 5766 5764 5762 5759 5757 5755 5753 5751 5750 5748 5746 5744 5742 5740 5738 5735 5733 5731 5729
5841 5840 5840 5838 5836 5834 5829 5826 5824 5819 5815 5812 5810 5806 5803 5800 5797 5795 5792 5789 5786 5783 5780 5778 5775 5773 5771 5768 5766 5763 5761 5758 5756 5753 5751 5749 5747 5745 5744 5742 5740 5738 5736 5734 5732 5729 5727 5725 5722
5839 5837 5836 5834 5831 5829 5826 5823 5819 5815 5811 5808 5805 5801 5798 5795 5792 5790 5787 5783 5780 5777 5775 5772 5770 5767 5765 5763 5760 5758 5755 5753 5750 5748 5746 5743 5741 5740 5738 5736 5734 5732 5730 5728 5725 5723 5721 5718 5715
5837 5834 5833 5831 5829 5827 5824 5820 5816 5812 5808 5805 5801 5797 5794 5791 5788 5785 5782 5779 5775 5772 5770 5767 5765 5762 5760 5758 5755 5753 5750 5748 5746 5744 5741 5739 5737 5735 5733 5731 5729 5726 5724 5722 5719 5717 5714 5711 5708
5834 5832 5830 5828 5826 5823 5821 5819 5813 5809 5805 5802 5798 5794 5791 5788 5784 5781 5778 5775 5772 5769 5765 5763 5760 5758 5755 5753 5750 5747 5745 5743 5741 5739 5737 5735 5733 5730 5728 5726 5723 5721 5719 5716 5714 5711 5708 5704 5701
5831 5829 5827 5826 5823 5820 5817 5817 5809 5806 5802 5799 5795 5791 5788 5785 5781 5778 5775 5772 5768 5765 5762 5759 5756 5753 5751 5748 5745 5743 5741 5739 5737 5735 5733 5731 5729 5726 5724 5721 5719 5717 5714 5711 5708 5705 5701 5698 5695